Regional Weather Roundup
Issued by NWS Little Rock, AR

Home | Current Version | Previous Version | Text Only | Print | Product List | Glossary On
Versions: 1 2 3 4 5 6 7 8 9 10 11 12 13 14 15 16 17 18 19 20 21 22 23 24 25 26 27 28 29 30 31 32 33 34 35 36 37 38 39 40 41 42 43 44 45 46 47 48 49 50
000
ASUS44 KLZK 312305
RWRLZK

WEATHER ROUNDUP FOR ARKANSAS
NATIONAL WEATHER SERVICE LITTLE ROCK AR
600 PM CDT TUE MAY 31 2016

NOTE: "FAIR" INDICATES FEW OR NO CLOUDS BELOW 12,000 FEET WITH NO
SIGNIFICANT WEATHER AND/OR OBSTRUCTIONS TO VISIBILITY.

ARZ001-003-010-029-010000-
NORTHWEST ARKANSAS

CITY           SKY/WX    TMP DP  RH WIND       PRES   REMARKS
FAYETTEVILLE   CLOUDY    75  69  81 SE3       29.90R
FORT SMITH     CLOUDY    75  69  81 NE6       29.86R
HARRISON       CLOUDY    77  66  68 S3        29.91S
BENTONVILLE    CLOUDY    79  63  57 SW5       29.91R
ROGERS         PTSUNNY   77  66  68 SE8       29.91R
SILOAM SPGS    CLOUDY    75  63  64 SE5       29.90S
HIGHFILL       CLOUDY    77  68  73 SW3       29.89R
SPRINGDALE     MOSUNNY   77  66  69 SE5       29.91R
$$

ARZ004-005-016-010000-
NORTH CENTRAL ARKANSAS

CITY           SKY/WX    TMP DP  RH WIND       PRES   REMARKS
BATESVILLE     CLOUDY    81  68  65 SE5       29.87S
FLIPPIN        MOSUNNY  N/A N/A N/A SE3       29.85S
MTN HOME       CLOUDY    77  67  71 S5        29.87S
$$

ARZ040-041-010000-
WEST CENTRAL ARKANSAS

CITY           SKY/WX    TMP DP  RH WIND       PRES   REMARKS
MENA           CLOUDY    73  72  94 SW3       29.92S
MOUNT IDA      CLOUDY    76  72  87 CALM      29.87S
$$

ARZ009-017-025-026-028-010000-
NORTHEAST ARKANSAS

CITY           SKY/WX    TMP DP  RH WIND       PRES   REMARKS
CORNING        LGT RAIN  82  68  61 SE9       29.86F HX  85
JONESBORO      MOSUNNY   82  67  60 SE6       29.86S
NEWPORT        MOSUNNY   83  68  60 CALM      29.87S HX  86
WALNUT RIDGE   PTSUNNY   82  66  57 SE6       29.85S HX  85
BLYTHEVILLE    SUNNY     83  67  58 VRB3      29.87S HX  85
$$

ARZ022-023-033-042-044-010000-
CENTRAL ARKANSAS

CITY           SKY/WX    TMP DP  RH WIND       PRES   REMARKS
LITTLE ROCK    CLOUDY    83  69  62 SE7       29.86S HX  86
SEARCY         CLOUDY    81  71  71 S5        29.87S HX  85
HOT SPRINGS    CLOUDY    81  69  67 CALM      29.87S
RUSSELLVILLE   CLOUDY    79  68  69 CALM      29.86S
CLINTON        FAIR      81  70  69 CALM      29.87S
$$

ARZ036-010000-
EAST ARKANSAS

CITY           SKY/WX    TMP DP  RH WIND       PRES   REMARKS
WEST MEMPHIS   MOSUNNY   82  66  58 S8        29.86S
$$

ARZ050-053-066-070-073-010000-
SOUTHWEST ARKANSAS

CITY           SKY/WX    TMP DP  RH WIND       PRES   REMARKS
ARKADELPHIA    FAIR      83  73  71 CALM      29.87R HX  89
CAMDEN         CLOUDY    84  68  58 CALM      29.86R HX  87
TEXARKANA      CLOUDY    74  65  73 VRB3      29.89R
EL DORADO      CLOUDY    83  70  64 CALM      29.87R HX  87
DE QUEEN       LGT RAIN  71  70  96 W9        29.90F
$$

ARZ056-057-069-010000-
SOUTHEAST ARKANSAS

CITY           SKY/WX    TMP DP  RH WIND       PRES   REMARKS
PINE BLUFF     SUNNY     83  70  64 SE6       29.86R HX  87
STUTTGART      SUNNY     82  66  57 SE6       29.86S HX  85
MONTICELLO     PTSUNNY   87  69  54 SE3       29.86R HX  91

$$





USA.gov is the U.S. government's official web portal to all federal, state and local government web resources and services.